Temp
15 15 15 15 16 18 18 19 21 22 22 23 23 22 23 22 22 25 26 26 26 25 25 26 26 26 27 27 28 27 27 27 27 28 27 27 27 26 26 25 25 24 25 25 23 21 20 20 20 20 20 20 20 20 20 19 19 19 19 19 19 19 19 19 19 19 19 19 19 19 19 19 18 18 18 18 18 19 19 19 19 19 19 18 18 18
15 14 15 17 17 19 19 19 21 21 21 23 23 22 22 22 23 25 26 26 26 25 25 26 26 26 27 27 28 27 27 27 27 27 27 26 26 26 26 26 25 24 25 24 22 21 20 20 20 20 20 20 20 20 19 19 19 19 19 19 19 19 19 19 19 19 19 19 19 19 19 19 18 18 18 18 18 18 18 18 18 18 18 18 18 18
14 14 16 18 18 19 19 19 20 20 21 22 22 22 22 23 24 25 26 26 26 25 25 26 25 26 27 28 28 27 26 26 27 27 27 26 26 26 26 26 25 24 24 23 22 21 20 20 20 19 19 20 20 20 19 19 19 19 19 19 19 19 19 19 19 19 19 19 19 19 18 18 18 18 18 18 18 18 18 18 18 18 17 17 18 18
13 14 17 18 18 18 18 19 19 19 20 21 22 22 22 23 24 23 24 26 26 25 26 26 25 26 27 27 28 27 27 27 26 26 26 27 26 26 26 25 25 24 23 22 22 21 21 20 20 19 19 19 19 19 19 19 19 19 19 19 19 18 18 18 19 19 18 18 19 18 18 18 18 18 17 17 17 17 18 17 17 17 16 17 17 17
14 16 18 18 18 18 18 18 18 18 20 21 22 22 22 23 24 23 25 25 25 25 26 26 23 24 26 27 27 27 27 27 26 26 26 26 26 26 26 25 24 24 24 23 22 21 21 20 20 20 19 19 19 19 19 19 19 19 19 19 18 18 18 18 18 18 18 18 18 18 17 17 17 17 17 17 17 17 17 16 16 15 15 16 17 17
15 17 18 17 17 17 17 18 18 19 19 20 21 23 24 24 24 25 25 24 23 22 25 25 21 22 25 26 26 27 26 26 26 26 25 25 25 25 25 25 24 24 24 24 23 22 21 20 20 20 19 19 19 19 19 19 19 19 19 18 18 17 17 17 18 18 18 18 17 17 17 17 17 17 17 17 17 17 16 15 15 15 15 16 17 17
16 17 17 16 17 17 17 18 19 19 19 20 21 22 24 25 24 24 24 23 21 21 24 25 22 21 24 25 26 26 26 26 26 25 25 25 25 25 25 25 24 24 24 24 23 22 21 20 20 20 19 19 19 19 19 19 19 19 18 18 17 16 17 17 18 18 18 17 17 17 17 17 18 18 18 17 17 16 15 15 15 15 15 16 17 16
16 16 16 16 17 17 17 18 19 19 20 21 22 22 23 24 24 24 24 23 22 23 24 25 24 22 22 24 26 26 25 26 26 25 25 25 25 25 25 25 25 24 24 24 23 22 22 21 20 20 20 20 20 19 19 19 18 17 17 16 16 16 17 18 18 18 18 17 17 17 18 18 18 18 17 16 16 15 15 16 15 15 16 16 16 16
15 14 15 16 16 17 18 19 19 20 20 21 23 22 23 23 24 25 24 23 24 23 22 23 24 22 21 24 27 26 25 25 26 25 25 25 25 25 25 25 25 24 24 24 23 22 22 21 20 20 20 20 20 19 19 18 17 16 16 16 17 17 17 17 18 18 17 17 17 18 18 18 17 17 16 15 15 15 16 16 15 16 16 16 16 15
15 15 16 17 17 18 19 20 20 19 20 22 23 22 23 23 24 25 24 23 23 22 21 22 23 21 21 23 25 25 24 25 26 26 25 25 25 25 25 25 25 25 24 24 24 23 22 21 21 20 20 20 19 19 18 17 16 17 17 17 17 17 16 16 17 17 17 17 17 18 17 17 16 15 15 15 14 15 16 15 15 16 16 15 15 15
15 16 17 17 17 19 19 20 20 20 21 23 22 22 23 23 23 24 24 23 22 21 21 22 23 22 21 22 24 24 25 26 27 26 26 26 26 25 25 24 25 25 24 24 23 23 22 21 21 20 20 20 20 19 17 16 17 18 17 16 16 16 16 16 16 17 17 17 17 17 17 17 16 15 16 15 14 14 14 14 15 15 15 15 15 15
15 16 16 17 18 19 19 20 20 20 22 22 22 22 21 21 22 22 22 22 21 20 21 23 24 23 21 22 25 26 26 27 27 27 27 27 26 26 25 25 25 25 24 24 23 22 22 21 20 20 20 20 19 19 17 16 17 17 16 16 16 16 17 16 17 17 17 17 17 17 17 16 16 16 16 16 14 14 14 14 15 15 14 14 14 14
14 15 16 17 18 19 19 19 19 20 21 22 22 21 21 20 20 20 20 21 21 21 22 24 24 22 21 24 28 27 27 28 28 28 28 27 27 27 26 25 25 25 24 23 23 22 22 21 21 20 20 20 19 18 16 16 16 16 16 16 15 16 16 17 17 17 17 17 17 17 17 16 16 16 16 16 15 14 15 15 15 14 14 13 13 13
13 15 16 16 17 18 19 19 18 19 20 21 21 21 21 20 19 19 20 20 21 21 22 24 24 22 22 25 28 28 27 28 28 29 29 28 28 27 27 26 25 24 24 23 23 22 22 21 21 21 20 19 19 18 17 16 16 16 16 15 15 16 16 16 17 17 17 17 17 17 16 16 16 16 15 15 14 14 15 15 15 14 14 13 13 12
13 13 15 16 17 18 19 20 20 20 20 21 22 22 21 21 20 20 20 21 21 21 22 23 23 21 21 25 29 29 28 29 29 29 29 29 29 28 27 26 25 24 24 23 23 23 22 22 22 21 20 19 19 18 17 16 17 16 15 15 15 16 16 16 16 17 17 17 17 17 16 16 16 15 14 14 14 15 15 15 15 15 14 13 13 12
14 14 16 17 18 18 19 20 21 21 20 21 23 22 21 22 22 21 21 21 21 21 21 21 22 23 24 26 29 29 28 29 29 29 29 28 29 28 26 25 24 24 24 23 23 23 23 23 22 20 19 19 19 18 17 17 17 16 15 15 16 16 17 16 17 17 17 17 17 16 16 15 14 14 14 14 14 15 15 15 15 15 14 14 13 12
14 15 17 17 18 19 19 20 22 21 21 21 21 21 22 25 24 21 20 21 21 21 21 21 21 23 25 25 27 28 28 28 28 28 28 27 27 26 25 25 24 24 24 24 23 23 23 22 21 20 19 19 19 18 17 17 17 16 15 15 16 17 17 17 17 17 17 16 16 15 15 15 14 13 14 14 15 15 15 15 15 15 14 13 12 11
16 16 17 17 18 19 20 20 21 22 22 21 20 22 24 24 23 22 21 20 21 21 21 21 21 22 22 23 25 27 27 27 26 26 27 26 26 25 25 25 24 24 24 24 24 23 23 22 21 20 19 19 19 18 17 17 17 17 16 16 17 17 17 17 17 17 16 16 15 14 14 14 14 13 14 14 15 14 14 15 15 14 13 13 12 11
17 16 16 18 18 19 20 20 20 21 22 22 22 23 23 21 21 21 21 20 20 21 21 21 21 21 21 22 24 26 26 27 27 27 27 26 26 26 25 25 24 24 24 23 23 23 23 22 21 20 19 19 18 17 17 17 17 17 16 17 17 17 16 16 17 17 16 15 15 14 14 14 13 13 14 14 14 15 15 15 14 14 13 12 11 11
17 16 16 18 19 19 19 19 18 19 21 22 22 23 23 22 21 22 21 21 21 21 21 21 21 21 23 25 26 26 27 27 27 27 27 26 26 26 26 25 24 24 23 23 23 23 22 22 21 20 19 19 18 17 17 17 17 17 17 17 17 17 17 16 17 17 16 15 15 14 14 14 13 14 15 15 15 15 15 14 14 13 13 12 11 11
17 16 16 18 19 19 18 19 19 19 20 20 20 21 22 22 23 23 22 22 22 21 21 21 21 21 25 28 28 27 28 28 28 27 27 27 27 27 26 25 24 24 23 23 23 23 22 22 21 20 19 19 18 17 17 17 17 17 17 17 17 17 17 17 16 16 16 15 14 14 14 13 13 14 15 15 15 15 14 14 13 12 12 11 11 11
16 16 16 17 18 18 18 20 21 21 21 20 21 21 21 22 22 22 21 22 22 21 21 21 21 22 26 29 28 28 29 28 28 28 27 27 27 26 26 25 24 24 23 23 23 23 22 22 21 20 20 19 18 17 17 17 17 17 18 17 17 17 18 17 17 17 15 14 14 14 13 13 13 14 15 14 15 15 14 13 12 12 11 11 11 11
17 17 17 18 18 19 20 21 21 22 22 22 22 22 23 22 22 21 20 21 22 22 22 22 21 22 26 27 27 28 29 29 29 28 28 27 27 26 25 24 24 24 23 23 23 23 22 22 21 20 20 19 18 17 17 17 18 18 18 17 17 17 17 17 17 16 15 14 14 14 13 13 13 14 14 14 14 14 13 12 12 11 12 12 12 12
17 17 17 17 18 20 21 21 21 22 22 21 21 22 23 23 22 23 23 22 21 21 22 21 21 22 24 25 25 26 27 27 28 28 27 26 25 25 24 24 24 23 23 23 23 22 22 21 21 20 20 19 18 17 17 17 17 18 18 18 18 17 17 17 16 15 14 14 13 13 13 13 13 13 14 14 14 13 12 12 12 11 12 12 12 12
16 17 17 16 16 17 18 19 19 21 21 21 21 22 23 23 23 24 24 23 22 21 22 21 21 22 23 24 24 25 25 26 26 26 26 25 24 24 24 24 23 23 23 23 23 22 21 21 20 20 20 19 18 17 17 17 17 18 18 18 18 18 17 16 15 15 14 14 13 13 13 13 13 13 14 15 14 12 12 12 12 12 12 12 12 12
16 16 17 17 15 15 16 17 18 19 20 21 21 22 22 23 23 23 22 21 21 21 22 22 22 22 24 25 25 25 25 26 26 25 25 25 24 24 24 23 23 23 23 23 22 21 21 20 20 20 20 19 18 17 16 16 17 17 18 18 18 18 17 15 15 15 15 13 13 13 13 13 13 13 14 14 13 12 12 12 12 12 12 12 12 11
16 17 18 18 17 18 18 19 20 20 20 20 21 21 22 23 23 23 22 21 21 21 21 22 23 23 24 26 26 25 25 25 25 24 24 24 24 24 24 23 23 23 23 22 22 21 20 20 20 20 19 18 18 17 16 16 16 17 17 18 18 18 17 16 16 15 15 14 14 13 13 13 12 13 14 13 12 12 12 12 12 12 12 12 12 11
17 17 18 18 19 20 21 21 21 21 20 20 21 21 22 22 23 22 21 22 23 22 21 23 24 22 24 26 26 25 25 24 24 24 24 24 24 24 23 23 23 23 22 22 22 21 20 20 19 19 19 18 17 16 16 15 16 16 17 17 17 17 17 17 16 16 15 15 14 13 12 12 12 13 13 12 12 12 12 12 12 12 11 12 11 11
17 17 18 18 19 21 22 22 21 21 21 21 21 21 22 22 22 22 22 23 23 22 21 23 23 23 24 26 25 25 24 24 23 24 24 24 24 23 23 23 23 23 22 22 21 21 20 19 19 18 18 18 17 16 16 15 15 16 16 17 17 17 16 16 17 16 15 15 14 13 13 13 12 12 11 12 12 12 12 12 12 11 11 11 11 11
17 17 18 19 19 20 21 21 21 21 21 21 21 22 22 22 22 22 22 23 23 22 23 24 23 24 24 24 24 24 23 23 23 24 24 23 23 23 23 23 23 22 22 22 21 20 20 19 18 18 17 17 17 16 16 15 15 15 16 17 16 16 16 15 15 15 15 14 13 12 12 13 12 11 11 12 12 12 11 11 11 11 11 11 11 11
17 17 18 19 19 19 20 21 22 21 21 21 21 22 22 22 22 22 22 23 23 22 23 24 23 24 23 22 22 22 22 22 23 23 23 23 23 23 23 23 23 23 22 22 21 20 19 18 18 17 17 17 16 16 15 15 15 15 15 15 14 14 14 14 14 14 14 13 13 12 12 12 11 11 11 11 11 11 11 10 11 11 11 11 11 11
17 17 18 18 18 19 20 21 21 21 21 21 21 21 22 21 22 22 22 23 23 22 23 23 23 23 22 21 21 21 21 22 22 22 23 23 23 23 23 23 23 23 22 22 21 20 19 18 17 17 17 17 16 16 15 15 15 15 15 14 14 14 13 13 13 13 13 13 12 12 12 12 11 11 11 11 10 10 10 10 11 11 11 11 10 10
17 17 18 19 19 19 20 21 21 21 20 20 21 22 22 22 22 22 23 24 24 23 23 22 23 22 21 21 21 21 21 22 22 22 23 23 23 23 23 23 23 22 22 22 21 20 19 18 18 18 17 17 16 16 15 15 15 15 15 14 13 13 12 12 13 13 12 12 11 12 12 11 11 11 10 10 10 10 11 11 11 11 11 10 10 10
17 17 18 19 20 19 20 21 21 20 19 19 21 23 23 23 23 22 23 23 24 24 24 23 23 23 21 21 22 21 22 22 23 23 23 23 23 23 23 23 22 22 22 21 21 21 19 19 18 17 17 17 16 16 15 15 15 15 14 14 13 12 12 12 12 12 12 11 11 11 12 11 11 10 10 10 10 11 11 11 11 11 10 10 10 10
17 17 18 20 20 20 20 20 19 19 19 20 21 23 23 23 23 23 23 24 24 24 24 24 24 23 22 22 22 22 22 23 23 23 23 23 23 23 23 23 22 22 21 21 21 21 20 20 19 18 17 16 16 15 15 14 14 14 14 14 13 12 12 12 12 12 11 10 10 11 11 10 10 10 10 10 11 11 12 11 11 10 10 10 10 10
16 17 18 20 21 20 20 19 18 18 19 19 19 20 21 22 23 23 22 23 23 23 23 23 24 23 21 21 21 22 22 22 22 23 23 24 24 24 23 23 23 22 21 20 21 21 20 20 19 18 17 16 16 16 15 14 13 13 14 14 14 13 12 12 12 11 11 11 10 10 10 10 10 10 10 11 11 12 12 11 10 10 10 10 10 10
17 18 19 20 20 20 20 20 19 19 19 19 19 20 21 21 22 22 22 22 23 22 22 23 23 22 20 20 21 21 21 21 21 22 23 23 23 24 23 23 22 22 22 21 21 20 20 19 18 18 17 16 16 16 15 14 13 13 13 14 13 12 12 12 11 11 11 11 10 10 11 11 10 10 10 11 11 12 11 11 10 10 10 10 10 10
17 18 20 20 20 21 21 20 20 19 19 20 20 20 21 21 21 22 22 22 22 22 22 22 22 21 20 21 21 21 21 21 21 22 22 22 22 23 23 23 22 22 22 22 21 20 19 18 18 18 17 16 16 16 15 14 14 13 13 13 12 12 12 11 11 11 11 10 10 11 12 12 11 10 10 11 11 11 11 10 10 10 10 10 10 10
17 18 19 20 21 21 21 20 20 19 19 20 20 20 20 20 20 22 22 21 22 22 21 21 22 21 20 21 21 21 22 23 24 23 22 22 22 22 23 23 22 22 22 22 21 21 20 19 18 18 17 17 16 15 15 14 14 14 14 13 12 12 12 11 11 11 11 10 10 10 11 11 11 10 10 11 11 11 10 10 9 9 9 9 9 9
18 19 20 20 21 21 21 21 20 19 19 20 20 20 20 19 20 21 21 21 22 21 21 21 21 21 21 21 22 22 23 24 23 22 22 22 22 22 22 22 22 22 22 21 21 20 20 19 18 18 18 17 17 16 15 15 15 15 14 13 13 12 12 11 11 11 11 10 10 10 10 10 10 10 10 11 11 10 9 9 9 8 8 8 8 8
19 20 21 21 21 21 21 21 20 19 19 19 20 20 19 19 20 21 21 21 21 21 20 21 21 21 21 22 23 23 23 21 20 20 22 23 22 22 22 22 22 22 22 21 20 19 19 19 18 19 18 18 17 16 16 15 15 15 15 14 13 13 12 11 11 11 10 10 10 10 10 10 10 10 10 10 10 9 9 9 9 8 8 8 8 8
18 19 21 21 21 21 21 21 20 20 18 19 19 19 19 20 21 21 20 21 21 20 20 20 21 21 21 22 23 22 21 20 19 20 22 23 22 22 22 22 22 22 21 20 19 19 19 19 19 19 18 18 17 16 16 16 15 15 15 15 14 13 12 11 10 10 10 10 10 10 10 10 10 9 9 9 9 9 9 9 9 8 8 7 7 7
16 18 20 20 19 21 21 20 20 19 18 18 19 20 20 20 21 21 21 20 20 20 20 20 20 21 21 21 21 20 20 20 20 20 22 23 22 21 21 21 21 21 21 20 19 19 20 19 19 18 18 18 17 17 16 16 15 15 15 15 14 13 12 11 10 10 10 10 10 9 9 9 9 9 9 9 9 9 8 8 8 7 7 7 7 8
16 17 19 18 18 20 20 19 18 18 18 18 19 20 20 20 20 21 21 21 20 21 20 20 20 21 21 21 20 20 20 20 20 21 22 22 21 21 21 21 21 21 20 19 19 19 20 20 19 18 18 17 17 16 16 16 16 15 15 14 14 13 12 11 10 10 10 10 9 9 9 9 9 9 8 8 8 8 8 8 7 7 8 8 8 8
15 15 16 16 17 18 19 18 18 18 18 18 19 19 19 19 19 20 21 21 20 21 21 21 20 20 21 21 20 20 20 20 20 20 21 21 20 20 20 20 20 20 19 19 19 19 19 19 19 18 18 17 17 16 16 16 16 16 15 14 13 12 11 10 10 10 10 9 9 9 9 9 9 8 8 8 8 8 8 8 8 8 8 8 9 9
14 14 15 16 17 17 18 18 18 18 18 18 19 19 19 19 19 20 20 20 20 20 21 21 20 20 20 20 21 21 20 20 19 20 20 21 20 20 20 20 20 19 19 19 19 19 19 19 18 18 18 17 16 16 15 15 16 14 13 13 12 11 10 10 10 9 9 9 9 9 9 9 9 8 8 8 8 9 9 8 9 9 9 9 9 9
15 15 15 16 17 17 18 18 18 18 18 18 19 19 19 19 20 20 20 19 19 19 19 20 20 20 20 20 21 21 20 20 19 20 20 21 20 20 20 19 19 19 19 19 18 18 18 18 17 17 17 17 16 15 15 15 15 13 12 12 11 11 11 11 10 9 9 9 8 8 9 9 8 8 8 9 9 9 9 9 9 9 9 9 9 10
16 16 16 16 16 16 17 18 18 18 18 19 19 19 19 19 20 20 19 19 19 19 18 19 19 20 20 20 20 21 20 20 20 20 20 20 20 19 19 19 19 19 19 19 18 17 18 17 17 16 16 16 15 14 14 14 14 12 12 11 11 11 11 11 10 9 9 9 8 8 8 9 8 8 9 9 9 10 10 10 10 10 9 9 10 10
15 16 17 16 16 17 17 18 18 19 19 19 19 19 18 19 19 20 20 20 19 19 18 18 18 19 19 19 19 20 20 20 20 20 20 20 20 19 18 18 18 18 19 18 17 17 18 17 17 16 16 16 15 14 13 13 12 12 12 11 11 11 11 10 10 10 9 8 8 8 9 9 8 9 9 9 10 10 10 10 10 10 10 10 10 10
16 16 17 17 17 17 18 17 17 18 19 19 19 18 18 19 19 20 20 20 19 19 20 19 18 18 18 18 19 20 20 19 19 19 20 20 20 19 18 18 18 18 18 18 17 17 17 17 16 16 16 15 14 13 13 12 12 11 11 11 11 11 11 10 10 9 8 8 8 8 9 9 9 9 9 9 10 10 10 10 10 10 10 10 9 9
16 16 17 17 16 17 17 17 16 17 18 18 18 18 19 19 19 20 20 19 19 19 20 20 20 19 18 18 18 19 19 18 18 19 19 19 19 18 17 17 17 18 17 17 17 17 17 16 15 15 15 15 14 13 13 13 12 11 11 11 11 11 11 10 10 10 9 8 8 8 8 8 9 9 9 10 10 11 10 9 9 9 9 9 8 8
Height
757 757 753 748 745 741 741 739 732 730 730 725 727 732 731 734 736 729 728 728 729 739 742 740 743 743 740 738 738 738 739 742 743 744 747 749 750 752 754 757 759 761 762 763 770 775 778 781 783 785 786 787 789 791 793 795 798 800 803 806 808 811 813 815 817 818 820 821 823 824 826 827 828 830 831 832 833 834 835 835 836 837 837 838 839 841
754 753 745 739 739 736 739 740 733 735 734 726 726 730 730 732 730 725 726 726 727 735 737 737 740 740 736 735 735 736 739 742 741 742 746 748 749 750 752 754 757 759 761 764 770 774 777 780 782 783 785 786 787 789 791 793 796 799 802 804 807 810 812 814 816 818 819 820 821 823 825 826 828 829 831 832 833 834 835 836 836 837 837 838 839 841
754 749 737 733 736 735 737 739 736 738 735 729 727 728 730 727 724 726 724 723 727 733 734 734 738 737 732 731 731 734 738 739 739 739 742 745 748 750 751 753 756 759 762 766 770 772 776 779 780 782 783 784 786 787 790 792 795 798 800 803 806 809 811 813 815 816 818 819 821 823 824 826 828 829 830 831 832 834 836 837 837 837 837 838 840 841
748 742 733 730 734 736 737 737 739 740 736 730 726 727 727 722 724 730 727 724 727 730 730 730 735 734 730 730 729 730 734 736 737 739 740 741 744 747 749 751 755 758 762 766 769 771 774 777 779 780 781 782 784 786 788 791 793 796 799 802 805 808 810 813 814 816 818 819 821 824 825 826 828 829 830 832 833 835 837 838 838 837 838 839 840 841
738 732 729 729 734 737 739 740 741 742 739 732 725 723 723 720 721 723 723 726 729 731 727 729 741 737 728 730 729 727 731 734 736 739 741 741 742 744 746 749 753 755 758 763 767 769 772 775 777 778 780 781 782 784 786 789 792 795 798 801 804 807 810 812 813 815 817 820 823 825 826 827 828 829 830 832 834 836 837 838 839 838 839 840 841 841
734 728 727 733 737 738 739 739 738 739 739 736 728 721 717 718 720 717 720 729 737 741 731 730 749 745 726 727 729 728 732 734 735 738 741 742 742 744 746 749 751 752 755 758 763 767 769 772 775 776 778 779 780 782 785 788 791 794 797 800 803 807 810 812 814 814 815 818 821 824 826 826 827 829 830 832 835 837 838 838 839 839 841 841 842 842
731 729 729 735 737 737 737 735 733 734 736 736 728 722 716 715 719 719 721 730 738 739 728 726 742 741 727 726 727 727 731 733 734 737 738 739 741 743 744 746 747 750 753 756 760 764 767 771 773 774 775 777 778 781 785 787 790 793 795 798 801 805 809 811 813 814 813 814 817 821 823 824 825 827 830 833 835 837 838 838 839 840 841 842 843 843
729 733 734 734 734 734 734 731 729 730 734 729 720 721 721 717 719 720 722 727 727 725 725 724 730 735 728 722 720 724 730 732 733 736 737 737 739 740 741 742 744 747 750 754 759 762 765 768 770 772 773 774 777 780 784 787 789 792 795 799 802 805 808 809 810 812 812 813 815 819 821 822 824 827 830 833 835 836 837 838 839 840 841 843 844 844
729 737 735 732 733 730 727 725 724 728 731 722 714 720 722 720 718 716 720 724 719 723 732 727 726 737 729 713 712 721 727 729 729 732 735 735 736 737 738 740 741 744 747 750 756 759 762 765 768 770 771 773 776 779 783 786 788 792 796 800 801 803 807 809 809 810 811 812 814 817 819 821 825 827 829 831 832 834 837 839 840 841 841 842 843 844
730 734 730 728 730 725 721 720 720 727 726 715 715 719 719 720 718 717 720 720 720 730 735 724 723 737 730 711 712 720 722 724 724 726 730 730 731 734 736 738 739 742 745 748 752 756 760 763 765 768 770 772 775 779 783 786 788 790 793 797 800 804 808 809 808 809 811 812 814 816 818 821 824 826 828 830 831 834 837 840 841 840 840 841 842 843
729 728 727 725 725 720 717 718 719 724 720 712 717 720 721 724 721 721 719 715 727 738 731 717 714 728 730 714 709 715 714 714 718 721 724 724 727 730 732 735 737 739 743 747 750 754 757 761 763 766 769 771 775 779 782 785 786 787 788 793 798 802 805 807 806 808 811 813 814 816 818 821 823 824 826 827 829 834 839 840 840 840 840 841 841 842
729 729 729 724 721 717 717 720 721 722 716 713 718 720 726 731 728 731 727 722 736 740 722 708 707 722 730 711 698 704 706 705 709 714 718 721 723 725 728 731 733 737 741 745 749 752 755 759 762 764 767 770 774 779 781 783 784 785 789 793 797 800 801 803 804 806 809 812 814 816 819 822 823 823 824 825 827 832 838 839 838 839 840 841 841 842
733 727 726 725 722 717 718 722 724 724 718 716 716 716 727 736 740 744 740 734 737 729 710 701 705 720 721 701 690 697 702 700 702 705 709 714 717 720 724 727 730 734 739 743 747 751 753 757 759 761 765 769 773 778 780 782 783 786 790 794 799 801 800 800 802 805 807 810 813 816 819 823 824 823 824 825 827 832 836 837 837 837 839 840 841 842
735 727 724 726 724 717 715 717 722 722 718 716 713 712 720 729 744 750 738 735 734 722 707 698 706 720 714 697 690 694 696 695 697 700 702 707 712 716 719 723 729 732 737 741 745 749 751 753 756 759 763 768 772 776 779 781 783 786 791 795 799 800 798 799 801 803 806 809 812 816 819 821 822 823 825 827 829 833 835 836 836 837 838 839 840 841
734 732 726 723 721 717 713 708 710 712 713 713 705 703 708 711 728 737 728 729 729 721 715 710 714 722 713 697 686 687 691 690 693 697 698 703 706 711 717 721 728 732 735 739 742 745 748 750 754 758 763 767 771 775 778 780 783 785 790 795 798 799 799 800 801 803 805 809 812 815 817 819 820 824 826 828 831 833 835 836 836 836 837 838 839 841
727 725 717 715 713 713 714 705 700 706 714 712 702 705 707 696 703 718 717 713 712 718 724 719 714 706 697 691 683 685 690 689 693 696 698 704 705 709 717 721 725 730 732 736 739 742 745 748 753 757 762 766 770 774 776 779 782 784 788 794 797 799 800 801 802 804 806 810 812 814 817 820 822 825 826 828 831 833 834 836 835 835 836 838 839 841
722 717 711 714 712 708 712 705 698 703 709 709 709 710 700 685 692 712 720 711 709 723 727 719 714 702 697 699 690 689 693 691 696 699 700 706 707 711 718 719 723 727 729 733 735 739 742 746 751 756 761 765 768 772 775 777 780 782 787 792 795 797 800 802 803 804 807 810 812 814 816 819 822 824 825 828 831 832 834 835 834 835 836 838 840 841
711 715 713 713 713 708 707 704 700 698 697 704 713 705 694 695 698 704 719 724 723 729 724 716 716 710 709 710 697 693 697 696 699 701 702 706 708 712 716 717 721 724 727 730 733 736 740 745 750 754 759 763 766 771 773 776 779 781 786 789 792 794 796 798 800 803 806 808 810 813 816 818 821 823 825 827 830 832 833 834 834 835 837 838 840 842
702 714 716 710 710 709 705 706 709 703 694 697 701 695 697 715 716 705 715 728 729 728 723 718 716 708 705 703 697 697 696 696 698 699 701 705 707 710 712 715 719 722 726 729 732 735 738 743 749 753 758 762 765 770 772 775 778 780 784 787 790 792 793 793 796 800 804 807 808 811 815 818 820 822 824 827 830 831 832 833 834 836 837 839 841 842
701 711 717 709 704 707 707 709 714 711 703 700 698 695 698 706 706 702 705 710 716 722 722 721 719 708 694 686 689 693 691 691 696 697 700 702 703 706 709 713 717 721 725 727 730 733 736 741 747 751 756 760 764 768 771 774 777 780 783 786 788 790 792 794 796 799 802 805 807 809 813 817 819 821 824 826 828 829 831 834 835 836 837 839 841 843
706 710 713 707 703 708 709 706 706 706 707 709 707 704 703 699 693 694 697 693 697 710 716 722 725 708 685 676 681 685 684 686 690 694 697 698 699 702 706 710 715 718 722 725 727 731 734 740 746 750 755 759 763 767 770 773 777 779 782 784 786 788 790 792 796 799 801 803 805 808 812 816 818 820 823 825 827 828 831 834 835 836 838 840 841 843
709 709 707 706 707 708 705 699 697 696 699 704 704 701 701 700 697 703 710 699 688 696 703 713 721 702 677 674 677 679 680 681 684 689 693 694 696 701 705 709 713 716 720 723 725 729 733 739 744 749 753 757 761 765 768 772 775 778 780 783 785 786 788 790 793 797 800 801 804 808 811 814 817 819 822 824 826 828 831 834 835 836 838 839 842 843
705 704 703 703 704 702 697 695 694 691 693 697 698 696 693 696 698 704 713 705 695 696 693 698 709 696 675 675 678 677 678 678 680 685 689 692 695 699 704 708 711 715 718 721 724 728 732 737 743 748 751 755 759 763 767 770 773 777 779 781 783 785 787 790 793 797 799 801 804 807 811 814 816 819 821 822 825 828 831 834 835 836 838 839 842 844
704 703 704 705 702 696 692 694 693 690 693 699 698 692 689 693 694 689 691 694 699 701 696 703 712 698 681 682 682 680 681 680 682 685 688 693 697 700 705 708 711 715 718 720 724 727 732 736 741 746 749 753 758 762 766 769 772 775 777 780 782 784 787 790 793 797 799 800 804 807 811 814 816 818 820 821 824 828 831 833 834 836 838 840 842 844
706 703 703 709 712 709 707 708 705 695 693 697 696 692 690 691 691 686 685 692 700 698 693 701 708 696 686 686 683 683 685 685 686 687 689 695 699 701 705 708 711 714 717 720 723 727 732 736 740 744 747 752 756 761 764 767 771 774 776 778 781 784 788 791 793 796 798 801 804 807 811 814 816 818 819 820 824 827 830 832 834 835 837 840 842 844
709 705 701 707 716 719 717 712 704 697 695 695 693 693 693 691 691 693 695 702 706 701 693 692 693 690 687 685 683 684 686 686 688 689 691 694 698 700 703 707 709 713 716 719 723 727 732 735 739 743 746 751 755 760 763 766 769 773 775 778 781 784 787 790 792 795 798 801 804 807 811 813 815 816 818 820 823 826 829 831 833 835 838 840 842 844
708 705 699 699 700 701 699 694 688 690 696 697 694 694 694 692 690 693 700 703 700 699 699 688 683 689 687 681 684 686 686 688 690 691 692 694 697 699 702 705 708 711 716 719 722 727 731 735 738 742 746 750 755 758 761 764 769 772 774 777 780 783 786 789 791 794 797 801 804 807 809 812 814 816 818 820 823 826 829 831 833 836 838 840 842 844
705 704 698 694 690 683 681 682 682 687 693 695 694 694 694 693 693 695 701 698 691 696 701 689 685 693 689 681 684 687 686 689 690 691 693 694 696 698 701 704 708 711 715 718 722 726 730 734 738 741 745 750 754 757 761 765 768 771 773 776 779 782 785 787 790 793 796 800 803 805 808 811 814 816 818 821 823 826 829 831 834 836 839 841 842 844
704 702 696 694 691 681 676 679 682 686 690 690 691 694 694 695 695 697 699 693 689 694 697 692 692 695 688 684 685 686 686 689 690 690 691 693 695 698 701 704 707 710 713 717 721 725 729 733 737 741 745 749 753 757 760 765 768 770 772 775 778 781 784 787 789 792 795 799 801 804 806 810 814 816 818 820 823 826 829 831 834 837 839 841 842 844
703 701 694 693 693 687 681 681 682 686 689 690 691 692 693 695 694 696 695 690 690 692 690 691 695 692 689 689 687 686 688 689 689 691 691 693 696 697 700 704 706 709 712 715 720 725 729 733 737 741 745 749 752 756 760 764 766 769 771 774 777 780 783 786 789 791 794 797 800 803 806 810 813 815 818 820 823 826 829 832 835 837 839 841 843 844
703 701 694 691 693 691 686 681 680 684 687 690 693 691 692 696 697 697 694 691 693 695 691 692 694 691 691 693 691 691 692 691 692 694 693 694 696 697 700 703 705 708 711 715 719 724 728 733 737 741 745 748 752 755 759 763 765 768 771 773 776 779 782 785 787 790 794 796 799 802 805 809 812 815 817 820 823 826 829 832 835 837 839 841 842 844
702 700 695 693 694 692 687 684 683 683 686 691 694 692 692 696 698 697 693 690 691 695 696 696 695 692 694 696 696 696 695 694 695 695 695 695 695 697 699 702 704 707 711 715 718 723 728 732 736 740 744 748 751 755 759 762 765 767 770 773 775 779 782 785 787 790 793 796 798 801 804 808 811 814 817 820 823 827 830 832 834 836 838 840 842 844
700 699 694 691 691 689 687 685 683 686 696 699 692 686 689 692 694 694 691 686 687 690 696 698 694 693 696 696 697 699 698 697 696 694 695 695 695 696 698 700 704 707 710 714 718 722 728 732 735 740 743 747 750 754 757 761 764 767 770 773 776 779 783 785 787 790 792 795 798 800 803 808 811 814 818 821 824 827 829 832 834 836 838 839 841 843
698 697 693 685 684 687 686 683 685 695 705 700 683 676 682 687 690 694 691 686 685 686 689 691 689 691 696 696 696 698 696 694 693 691 692 694 695 696 697 699 704 707 710 714 717 721 726 731 736 740 743 746 750 753 757 761 764 767 770 773 776 779 783 785 787 790 792 795 798 800 804 808 811 814 818 821 825 827 829 831 833 835 837 839 841 843
699 698 694 683 678 684 685 687 699 707 701 691 683 678 679 681 684 689 688 684 683 684 686 690 690 690 693 695 695 695 694 692 691 690 690 691 693 695 698 700 703 707 711 715 717 720 724 729 734 739 743 747 750 753 757 761 764 767 770 772 775 778 782 785 787 790 793 795 798 801 804 807 811 815 818 821 824 826 828 830 832 834 836 838 840 843
699 696 692 681 675 683 689 695 705 705 694 691 692 687 685 686 686 690 693 689 685 686 687 690 690 691 694 697 696 695 694 694 694 692 690 691 692 694 698 701 703 707 711 714 717 720 724 728 733 738 742 746 749 753 756 760 764 766 769 773 775 778 781 784 787 790 793 795 798 800 803 806 810 814 817 820 822 824 827 829 831 833 835 837 840 842
694 691 684 679 678 682 688 692 695 696 694 695 695 689 688 689 688 692 698 695 687 686 688 688 690 693 697 698 696 695 695 698 700 697 692 692 693 694 697 700 703 706 709 713 717 720 725 730 733 738 742 745 749 753 755 759 763 765 769 773 775 777 780 783 787 789 791 794 796 799 802 805 809 813 816 818 820 822 825 827 830 832 834 836 839 841
689 686 679 680 679 676 680 689 694 698 700 696 691 687 687 688 687 688 695 695 688 687 689 689 691 695 698 698 696 696 697 700 702 698 694 694 695 695 697 699 702 706 708 712 716 720 725 730 734 737 741 745 749 752 755 758 761 764 768 772 774 775 778 782 785 787 790 792 795 797 800 803 807 810 813 816 818 820 823 825 827 830 832 835 837 839
688 685 679 679 677 672 677 686 691 697 700 694 689 689 689 690 689 690 698 699 690 687 690 691 693 696 697 697 696 696 696 697 696 694 693 695 697 697 699 700 702 706 709 712 716 720 724 729 733 737 740 744 748 752 754 757 760 763 767 770 773 775 778 781 784 785 788 791 793 796 800 802 805 808 811 814 816 818 820 822 825 828 830 833 836 838
683 681 676 675 676 673 674 679 685 694 698 693 689 690 690 690 691 698 708 703 690 688 691 691 692 695 695 695 695 694 695 695 696 695 693 694 697 698 700 702 703 706 709 713 717 721 724 729 733 736 739 743 747 751 754 757 759 763 766 769 773 776 778 781 784 786 789 792 794 797 800 803 806 809 812 814 816 817 819 821 823 826 829 832 834 837
680 676 671 670 673 673 673 679 687 694 695 691 690 691 690 692 696 703 706 697 688 690 692 690 691 694 694 693 692 692 694 696 698 698 694 693 697 699 700 703 705 707 711 715 719 722 725 729 733 735 738 742 746 750 754 757 760 762 766 769 773 776 778 780 783 786 790 794 797 797 799 803 806 809 811 813 815 817 818 820 822 825 828 832 834 837
690 684 676 674 676 675 676 681 688 695 697 693 691 691 690 695 699 699 696 691 689 691 692 691 692 693 693 692 691 693 696 697 697 698 695 694 697 700 701 704 706 709 712 716 720 723 725 729 732 736 739 742 746 750 753 756 760 763 766 770 773 775 777 779 783 785 789 794 797 797 799 803 805 808 810 812 814 817 819 821 823 826 829 833 835 837
699 691 683 684 687 682 680 687 695 701 700 694 691 692 692 694 696 692 690 691 690 690 692 692 692 693 693 693 695 696 697 696 697 697 695 695 698 701 703 706 708 711 713 717 721 724 725 728 732 735 739 742 746 749 752 755 759 762 765 769 771 774 777 779 782 785 789 793 795 797 799 802 804 806 809 812 815 818 820 823 825 827 830 832 835 837
702 697 692 694 695 689 688 697 702 702 699 694 692 693 693 693 692 690 690 692 691 690 691 692 693 693 693 694 697 699 698 698 699 698 697 699 701 703 705 707 709 712 715 718 722 723 725 727 731 735 738 742 745 748 751 754 757 760 765 768 771 774 777 779 781 785 788 791 794 796 798 801 803 806 809 812 815 818 821 823 826 828 830 831 833 836
710 708 705 704 700 696 697 701 701 698 697 695 694 694 695 695 695 692 692 693 693 691 690 692 695 695 694 695 698 699 700 701 701 701 701 702 703 705 707 709 711 713 716 718 721 723 724 727 731 734 737 740 744 747 750 753 756 759 763 766 768 771 774 777 779 782 786 789 792 795 798 801 803 806 808 812 815 818 820 823 825 826 828 830 832 834
714 712 709 706 702 700 701 700 698 698 698 697 696 697 698 698 697 695 695 695 696 695 693 694 696 697 697 697 698 699 700 702 704 704 703 703 705 706 708 710 712 715 717 718 721 723 725 727 731 734 736 739 743 746 749 752 755 758 761 763 766 769 772 775 778 781 784 787 790 794 797 800 802 805 808 811 815 817 819 822 823 825 826 828 829 832
711 709 708 705 704 705 706 702 700 702 701 699 698 698 698 698 698 697 698 698 699 698 698 697 698 698 699 698 698 699 701 703 704 706 705 705 707 708 709 711 713 716 717 719 722 724 726 728 732 734 736 739 743 746 749 752 755 757 759 762 765 769 772 775 777 780 783 786 789 792 795 798 801 804 807 810 814 817 819 820 822 823 825 826 827 829
711 708 708 709 709 710 709 704 701 701 700 699 699 699 699 700 699 698 699 701 701 701 701 701 700 700 699 700 700 700 702 703 704 706 706 706 708 710 711 713 714 716 718 720 723 725 727 729 732 734 736 739 742 745 748 751 754 756 758 761 765 768 771 774 777 779 782 785 788 791 794 797 799 802 805 808 811 814 816 818 820 822 823 824 825 826
714 711 710 713 713 710 707 705 701 700 700 699 700 701 701 701 700 699 699 701 702 703 703 703 703 702 702 702 702 701 702 704 705 705 706 707 709 711 713 715 716 718 719 721 724 726 727 729 731 733 735 738 741 744 747 750 753 755 757 760 763 766 769 773 776 779 782 785 788 791 794 797 799 801 804 806 809 812 814 816 818 820 821 823 824 825
713 713 712 714 716 712 709 709 707 706 705 704 702 702 702 701 700 699 700 701 702 703 703 703 705 705 705 705 704 702 703 705 706 706 707 707 709 712 714 716 718 719 719 722 725 726 728 730 731 733 736 738 741 743 746 749 752 754 756 759 762 765 768 771 774 778 780 783 787 790 793 796 798 800 802 804 807 809 811 814 816 818 820 821 823 824
715 716 714 715 718 716 712 711 711 710 708 706 705 704 703 702 701 701 701 703 703 703 702 702 704 705 706 707 707 705 706 707 708 708 708 709 710 713 715 717 718 719 721 723 725 727 729 730 732 734 736 738 741 743 746 749 751 753 755 758 761 764 766 768 772 776 779 782 784 787 790 793 796 798 800 803 805 807 809 812 815 817 818 820 821 823
Wind_Speed
13 12 14 14 14 19 19 19 19 6 7 15 16 15 15 12 13 16 13 16 21 17 18 22 19 20 21 17 14 15 17 17 18 17 13 12 12 10 10 10 10 10 9 11 14 16 17 16 17 18 18 19 20 21 21 22 22 20 20 19 19 20 20 19 17 17 17 16 16 14 14 14 14 12 11 10 9 9 9 9 9 8 7 7 7 7
14 13 16 18 16 18 19 19 18 8 7 13 14 13 14 12 12 16 15 15 18 15 14 20 21 20 22 19 15 15 17 17 17 17 15 14 13 10 11 11 10 9 8 10 12 15 17 17 17 18 18 19 21 21 21 22 22 21 20 20 20 20 21 19 17 18 18 17 16 15 14 13 12 11 11 10 9 9 8 7 8 7 7 8 8 7
13 14 19 20 15 16 18 20 19 11 9 11 11 12 12 12 11 13 16 15 15 12 11 18 19 17 20 20 17 16 15 15 15 16 15 15 14 12 12 11 10 10 10 10 11 14 16 16 18 17 17 20 21 20 21 22 22 22 21 21 20 20 20 18 17 19 18 17 16 14 14 14 11 10 11 10 9 8 7 6 6 6 7 8 8 8
13 14 19 20 16 16 17 20 21 12 9 9 10 11 10 13 13 10 14 16 14 11 10 14 15 13 16 18 17 17 15 14 14 15 14 13 13 12 12 10 10 12 12 12 12 13 15 16 18 18 18 21 21 20 22 22 22 21 21 21 21 20 19 17 18 18 17 17 15 12 12 13 11 10 10 9 8 8 7 5 4 6 8 8 9 10
14 13 16 19 17 17 17 18 20 13 8 10 11 11 11 15 16 10 12 15 13 12 12 11 10 10 14 17 17 15 15 15 14 15 14 13 12 11 11 10 10 12 12 13 13 13 14 16 17 19 19 20 20 20 21 22 21 21 21 21 21 21 21 19 20 19 17 16 15 12 11 12 10 10 10 9 8 7 6 6 5 7 8 9 12 11
14 12 14 18 17 18 18 16 19 16 9 10 12 13 12 15 17 13 14 15 11 11 13 12 9 9 13 17 16 14 15 15 14 15 15 14 13 11 10 11 11 12 12 13 13 13 13 14 15 17 19 19 18 19 20 21 21 20 20 21 21 23 22 19 20 21 21 20 19 17 15 13 12 12 11 10 10 9 6 7 9 11 11 12 13 11
11 13 14 17 18 19 18 14 18 19 11 9 12 13 12 14 18 15 15 15 10 9 14 15 11 7 11 16 17 16 17 18 16 15 16 14 13 12 11 12 13 12 12 13 12 13 13 14 15 17 18 19 18 18 18 18 19 17 18 21 24 26 25 21 20 23 25 25 22 20 17 16 15 14 11 9 9 8 7 10 13 14 15 14 12 9
11 14 15 18 19 17 14 12 17 21 13 7 13 16 12 11 16 16 14 13 9 7 12 17 14 8 8 13 18 19 19 20 20 16 15 14 13 14 14 13 13 13 13 13 12 13 13 14 17 18 18 18 18 17 16 17 18 17 19 24 27 28 28 26 25 26 27 24 21 20 18 16 15 13 11 10 9 9 11 16 16 16 16 12 9 8
13 15 17 19 17 14 12 11 16 21 15 6 12 18 15 12 14 14 12 10 9 9 10 16 16 10 8 10 17 21 20 22 23 19 16 15 15 16 15 15 14 13 13 13 13 13 13 15 18 18 17 17 16 15 14 14 17 22 23 26 28 28 27 26 27 27 24 22 22 22 20 16 14 12 11 11 12 14 17 18 18 17 14 11 8 7
12 14 16 17 14 12 14 13 15 20 16 8 12 16 15 12 12 11 11 10 10 10 10 16 18 12 8 8 13 17 19 20 19 17 16 17 17 16 15 15 14 13 12 13 13 13 14 17 18 16 16 16 15 14 12 16 24 24 25 28 27 24 23 22 26 26 22 20 22 22 20 17 15 13 12 13 16 21 24 21 19 16 13 11 8 6
11 14 13 13 12 11 15 14 14 19 18 11 12 13 12 10 10 8 9 9 9 10 12 17 21 16 9 8 12 13 14 17 17 16 17 18 18 16 15 15 15 13 11 12 13 12 15 17 17 16 16 16 15 13 15 28 30 25 26 28 25 23 23 21 23 24 21 20 21 21 20 19 16 15 17 18 20 23 24 21 19 16 13 11 9 7
11 14 11 11 12 12 14 14 13 18 20 13 11 12 10 9 8 7 7 9 9 10 13 17 21 19 13 8 10 12 15 18 19 18 19 19 18 17 15 15 15 14 12 12 13 12 14 15 16 18 17 16 15 15 25 35 30 23 24 25 23 22 22 21 21 21 20 19 19 20 20 18 15 17 21 22 24 25 22 20 19 17 14 12 10 9
8 13 13 13 13 13 14 13 12 15 17 13 11 12 11 9 8 9 9 9 9 8 10 17 19 16 13 9 8 13 18 21 19 18 20 20 19 17 16 15 13 13 13 13 12 12 13 13 14 18 17 17 17 19 29 33 23 21 24 25 25 22 20 22 23 21 20 18 18 19 19 16 14 18 23 24 25 25 22 20 19 17 14 12 11 10
7 12 16 15 12 14 15 13 11 13 16 15 13 12 11 10 9 11 11 9 10 6 6 14 15 11 11 11 9 11 16 20 20 19 19 19 18 16 15 14 14 14 14 12 12 13 13 13 15 17 16 17 18 20 28 30 22 24 26 26 28 27 24 24 25 24 21 18 18 18 18 17 17 21 24 25 25 23 21 20 18 16 14 12 12 12
9 10 14 15 12 15 18 15 12 13 15 15 12 11 10 8 8 9 9 9 11 7 7 12 12 9 8 7 10 11 12 16 18 18 18 16 16 15 13 14 14 14 14 12 13 14 14 15 16 16 16 17 19 21 27 28 24 26 27 26 29 30 26 22 23 23 21 19 18 19 19 18 20 23 23 24 26 24 22 20 18 15 13 12 13 14
10 9 14 16 13 16 19 15 14 13 12 12 10 10 9 7 6 5 3 5 9 8 8 10 7 6 4 3 6 11 11 13 15 16 17 14 13 14 13 14 14 14 14 13 13 14 14 16 17 17 17 18 21 23 25 25 23 26 28 28 29 28 24 20 20 19 18 18 18 18 18 18 21 25 24 25 26 25 22 19 16 14 12 13 16 16
9 7 16 18 13 17 18 16 16 13 10 11 10 11 9 5 4 4 2 3 7 8 7 9 7 5 4 3 7 12 12 13 13 14 16 13 14 15 13 13 14 13 14 14 14 14 14 16 17 18 19 20 23 24 22 23 23 25 27 28 27 24 20 18 17 17 17 17 17 17 19 22 23 22 24 28 28 25 23 18 15 14 13 15 17 17
8 7 15 19 14 16 18 17 17 14 10 10 10 11 10 4 3 5 6 5 8 8 6 10 12 9 6 5 9 14 15 15 14 14 15 14 15 15 13 13 14 14 14 14 14 14 14 15 17 19 20 21 24 24 22 23 22 23 25 26 25 23 22 21 19 18 18 18 18 17 20 24 22 19 25 31 29 25 22 18 15 15 15 17 18 18
8 6 12 18 15 15 16 15 14 14 14 11 9 9 9 7 5 6 6 7 9 8 6 10 13 10 8 6 10 15 16 15 15 15 15 15 15 14 13 14 15 14 14 13 13 13 13 15 18 21 21 22 25 24 23 23 21 22 23 24 24 22 22 23 22 21 19 19 18 17 19 21 19 21 29 32 28 24 21 18 18 17 17 18 18 17
8 4 9 16 16 14 14 13 11 12 13 10 8 9 8 7 6 6 5 6 8 8 5 8 11 9 7 7 12 16 17 16 16 14 14 15 15 14 12 13 13 14 13 13 14 14 14 16 20 22 23 24 25 25 25 24 22 23 24 25 25 23 22 22 22 22 20 18 18 18 19 18 18 25 32 30 26 23 20 20 20 19 19 19 16 16
6 4 7 14 16 14 11 11 12 12 12 9 8 10 10 6 5 6 5 4 6 7 6 6 7 7 7 6 8 13 16 16 16 14 13 14 14 13 12 13 13 13 14 14 14 14 15 17 20 22 23 24 25 25 26 25 24 25 26 26 25 24 25 23 21 22 21 18 19 20 20 18 21 30 32 29 25 22 22 22 21 20 20 18 16 16
5 4 8 12 12 12 11 12 14 14 13 11 8 9 11 8 5 6 6 5 5 5 5 6 5 6 7 7 7 9 12 14 16 16 13 13 14 13 12 13 13 13 13 14 14 14 15 16 20 23 24 25 26 25 27 28 27 25 26 27 24 22 23 22 22 24 21 18 20 21 20 19 26 33 33 29 25 24 24 24 22 21 19 18 17 16
4 3 9 12 10 11 13 14 15 16 14 12 10 9 10 10 7 6 6 7 5 2 2 4 4 4 6 5 7 8 8 9 13 15 13 12 13 13 13 13 13 13 13 14 14 14 14 17 21 24 24 26 26 25 27 30 29 25 25 27 25 21 21 22 23 24 21 19 20 20 20 23 30 34 33 29 26 25 26 25 22 20 19 18 17 16
3 3 8 10 8 10 12 13 13 15 14 12 11 11 11 11 10 7 4 5 6 5 3 4 5 3 5 3 3 4 4 5 8 10 11 10 10 12 13 13 13 13 14 14 14 14 15 17 21 22 22 24 25 25 27 28 27 25 26 28 26 23 22 22 23 22 20 20 21 20 22 26 30 33 33 29 27 27 26 24 21 19 18 17 17 16
3 4 8 9 9 9 10 10 11 14 14 11 10 12 12 13 15 11 3 2 5 6 4 4 5 4 4 3 3 4 5 7 7 8 10 11 11 12 12 13 13 14 14 16 16 16 16 17 18 19 21 23 23 25 27 26 25 25 27 27 26 25 25 22 21 21 21 21 21 21 23 26 29 33 32 28 28 28 26 24 23 20 18 17 17 17
1 4 7 9 10 11 10 11 12 13 12 10 12 15 14 16 19 13 5 4 5 4 3 4 4 7 7 6 6 5 6 8 8 9 10 11 12 13 12 13 13 14 15 17 18 17 17 16 16 18 21 22 23 25 25 24 23 23 24 24 24 24 25 22 21 22 22 22 22 23 23 24 27 32 32 29 29 29 27 26 24 21 18 17 17 17
2 4 8 10 10 9 9 11 13 13 12 13 16 18 16 16 18 13 7 5 5 5 5 4 1 5 6 7 7 6 7 8 8 10 10 10 12 13 13 13 13 13 15 16 16 16 17 17 17 19 21 22 24 25 24 23 22 22 22 22 22 22 22 22 22 22 22 23 23 24 24 24 27 32 31 29 29 28 27 27 24 20 17 16 17 17
3 5 9 11 12 10 9 11 13 15 15 15 17 18 16 16 18 16 11 6 4 5 6 3 3 3 4 5 5 6 7 8 8 10 10 10 12 12 12 14 15 15 16 16 17 18 18 18 17 18 20 23 23 23 22 22 21 21 21 21 20 20 21 22 23 22 23 24 23 24 27 27 29 30 28 26 28 29 27 26 23 19 16 16 16 16
3 5 8 9 11 11 9 11 14 14 14 14 15 16 16 17 18 17 15 10 7 6 2 6 5 4 6 6 2 4 6 8 8 9 10 10 12 13 14 15 17 17 18 18 18 18 17 18 17 16 19 23 24 24 23 22 21 21 21 20 20 19 20 23 24 23 22 22 22 24 29 31 30 27 26 27 29 28 27 25 22 18 16 16 16 16
4 3 6 8 10 10 9 11 15 16 15 14 14 14 16 16 16 16 17 14 11 9 4 5 6 6 6 6 3 4 4 6 7 8 10 11 13 15 15 16 17 17 19 19 18 17 16 17 17 17 20 23 24 24 24 23 23 23 21 20 19 19 20 22 21 21 20 20 21 25 29 31 29 26 27 29 29 28 27 25 20 17 16 16 16 15
4 2 3 5 8 11 10 11 15 17 16 15 15 15 16 16 15 15 16 14 12 11 7 5 6 3 5 5 3 4 4 6 7 9 11 12 14 15 16 16 17 17 18 17 18 18 16 16 18 18 19 23 25 25 23 22 23 24 22 20 20 19 19 19 19 19 18 19 23 27 30 30 29 27 28 28 28 28 26 22 18 16 16 16 16 16
5 3 2 5 6 10 11 12 13 15 15 15 17 18 17 16 15 14 14 14 12 12 10 7 6 1 5 4 3 4 4 6 9 10 11 12 14 15 16 16 16 17 17 17 17 18 17 17 18 18 19 23 26 25 23 22 23 25 23 21 20 19 17 18 21 21 20 22 25 29 31 30 29 28 29 29 28 26 22 19 18 17 16 16 16 16
5 5 4 6 6 9 13 14 12 13 12 11 14 18 18 16 14 14 15 16 13 10 8 6 2 3 5 3 3 4 5 7 8 9 10 11 13 15 15 15 16 16 17 17 17 18 17 17 18 20 23 25 25 25 25 24 23 24 24 23 22 19 18 22 26 25 23 24 26 29 31 31 30 30 30 28 24 21 19 19 18 17 16 17 17 16
7 6 5 5 5 9 14 14 11 11 10 5 6 14 18 18 16 15 16 16 13 9 7 4 3 3 3 2 2 3 4 6 6 8 9 10 11 12 13 14 14 15 16 16 16 17 17 16 18 22 24 25 25 26 26 25 23 23 24 25 24 22 23 27 28 27 26 25 25 30 32 31 31 30 28 24 20 19 19 19 18 17 17 17 17 17
6 6 5 5 5 8 11 11 10 9 5 3 3 6 10 13 16 16 15 14 12 11 10 7 5 3 2 2 1 1 3 5 5 7 9 10 10 10 11 12 13 14 15 15 16 16 16 17 20 22 22 23 25 26 25 24 25 25 24 24 25 24 26 30 30 28 28 27 26 30 32 31 31 29 24 20 19 19 19 18 18 18 17 17 18 17
7 5 5 5 5 8 9 9 7 6 6 7 5 6 6 7 11 13 12 10 7 8 8 6 4 2 2 1 1 1 3 4 5 5 7 9 9 9 10 10 12 14 14 14 15 15 16 19 22 23 24 25 26 26 25 24 25 25 24 24 25 25 27 31 32 30 30 30 30 32 33 34 34 29 23 20 21 20 19 19 18 18 17 18 18 17
8 6 5 5 5 7 9 8 6 6 8 7 6 6 5 5 8 9 9 6 4 4 5 5 3 1 2 1 1 3 5 5 5 5 7 8 8 8 9 10 11 12 14 15 17 18 19 21 23 24 25 25 25 25 25 25 24 25 26 24 24 28 29 29 28 29 32 34 35 36 36 35 34 29 23 21 22 21 20 19 19 18 18 19 19 18
9 7 5 3 4 6 8 8 7 7 7 6 6 6 3 0 2 4 6 5 5 3 3 4 3 3 4 3 4 6 6 5 4 5 8 9 8 7 9 11 12 12 13 16 19 20 22 22 22 25 25 24 25 24 24 25 24 25 26 24 24 29 32 29 27 28 30 32 35 38 39 38 37 33 26 23 22 22 21 20 20 20 20 20 20 20
9 7 6 4 6 8 8 8 7 5 5 5 7 7 4 1 2 2 6 6 5 4 3 4 4 6 6 6 7 6 4 2 3 4 7 10 9 7 8 10 12 13 15 17 19 19 20 21 22 24 25 24 24 24 24 25 25 24 25 24 25 27 27 28 31 29 28 31 32 33 34 35 36 33 28 25 24 23 22 21 21 20 20 20 20 20
7 5 6 6 8 8 7 7 6 4 5 6 6 6 3 3 4 6 8 5 5 4 3 4 6 8 8 8 8 4 0 2 4 4 6 10 10 9 9 10 11 13 15 16 17 17 19 21 22 23 23 23 24 24 24 24 23 23 23 24 26 26 23 24 26 24 27 30 29 28 30 29 27 26 24 23 22 22 23 23 22 22 21 21 23 24
2 1 3 6 8 7 6 7 6 5 5 5 5 4 3 5 7 8 5 2 5 4 4 5 7 9 9 8 6 2 4 4 4 1 4 10 11 10 10 10 12 13 14 16 17 18 19 20 21 21 20 21 23 24 24 21 20 21 23 24 25 25 25 26 25 24 29 29 26 32 35 28 23 23 22 22 23 23 25 27 27 26 26 26 26 27
4 2 2 4 5 5 5 6 6 6 4 5 4 3 3 4 5 4 2 3 4 5 6 6 7 9 8 6 4 5 5 6 5 4 8 11 11 10 9 10 11 12 14 16 17 17 18 18 18 19 19 20 21 22 22 21 20 20 23 24 22 22 26 28 27 29 33 28 25 31 30 22 23 26 25 25 27 26 25 25 25 27 27 25 24 24
5 2 3 4 2 3 6 6 5 6 4 6 4 2 2 1 3 5 4 4 5 7 7 7 8 8 7 5 6 6 6 7 7 7 9 10 10 10 9 10 10 10 12 16 16 16 17 16 17 19 19 19 20 19 21 22 20 20 22 23 21 21 24 26 28 32 32 26 23 28 26 23 27 30 28 28 27 23 22 22 22 23 23 21 21 22
6 3 2 4 3 2 4 5 3 3 5 6 5 4 5 6 5 4 4 5 6 6 6 6 7 7 6 6 5 4 5 7 7 6 7 8 8 8 9 9 10 10 12 14 15 16 16 16 17 19 20 19 19 19 20 21 20 20 20 21 23 23 24 26 29 32 30 25 23 25 25 24 26 26 25 27 25 21 20 20 20 20 20 19 20 21
7 5 3 3 4 3 4 6 4 4 5 6 6 8 9 8 6 5 6 7 6 6 6 6 7 6 6 6 5 2 3 4 5 5 6 7 7 8 8 9 10 12 13 14 15 16 16 15 16 19 20 18 18 18 20 21 21 21 20 23 26 27 26 27 30 32 32 29 25 23 22 22 22 22 23 25 23 21 20 20 20 19 19 19 20 20
4 5 3 1 3 4 6 6 5 6 7 7 7 7 8 7 5 5 7 7 6 6 6 6 6 6 5 4 4 3 3 5 4 4 5 6 7 8 8 9 10 12 13 15 15 16 16 16 16 18 19 18 18 18 19 20 21 21 23 26 27 25 24 26 28 31 31 27 24 22 22 21 21 21 23 23 21 19 20 20 19 18 19 20 20 19
2 4 3 3 4 3 5 7 7 6 7 7 6 7 8 8 8 7 7 7 6 6 7 6 7 6 4 4 4 5 5 6 6 5 5 5 6 7 8 9 10 11 13 15 16 16 17 16 16 17 18 18 18 17 17 19 19 20 24 26 24 22 23 23 24 26 26 23 22 22 22 22 22 22 22 23 21 19 18 20 19 18 19 20 19 19
2 5 4 5 6 3 3 5 5 5 6 7 6 6 6 7 8 8 8 7 7 7 7 6 5 5 5 4 4 5 6 6 6 7 6 6 6 6 6 8 9 11 13 14 16 18 18 17 17 17 17 17 16 15 16 17 18 20 23 25 23 21 21 21 22 23 23 21 22 22 21 21 23 23 22 22 21 19 18 19 19 18 19 20 19 19
3 4 3 3 2 2 2 3 4 5 7 8 8 8 7 6 6 8 9 9 8 8 8 6 6 5 6 4 4 4 6 6 5 6 7 7 7 7 7 8 10 11 12 13 16 18 17 16 17 17 16 15 15 15 16 16 17 20 23 24 23 22 20 20 21 21 20 20 21 20 19 20 21 21 21 21 21 19 18 19 19 17 17 18 18 18
3 2 3 1 2 2 3 4 4 3 4 6 8 9 8 7 7 8 9 9 8 7 7 8 8 7 6 5 4 4 6 6 5 5 6 6 7 8 9 10 11 12 12 13 15 17 17 16 16 16 15 14 14 16 17 16 17 21 24 24 23 21 21 22 21 19 20 23 24 22 19 19 20 20 19 21 20 18 17 18 19 18 16 16 18 19
3 3 2 1 2 2 3 4 3 2 2 5 6 7 7 7 8 8 9 9 9 8 8 8 9 8 8 7 7 7 7 7 5 5 6 6 7 8 10 11 12 13 13 13 14 16 15 14 14 15 15 15 15 17 18 16 17 21 25 25 23 21 21 23 23 21 21 23 26 27 23 20 20 19 18 19 20 18 16 17 18 18 17 15 17 20
Wind_Direction
198 200 205 208 206 203 199 207 211 222 255 214 192 194 198 190 193 196 185 176 186 198 206 208 211 214 216 211 198 192 192 197 202 202 198 198 200 198 195 192 186 188 185 174 175 180 182 186 187 187 189 189 190 192 191 189 188 184 178 175 172 174 176 173 172 173 172 169 166 166 170 172 173 174 181 188 189 188 185 182 183 188 184 165 156 158
201 208 210 208 208 205 197 206 211 215 239 211 191 189 191 196 192 191 193 178 186 205 205 206 214 216 217 214 202 193 194 199 203 201 196 195 198 201 205 200 188 185 179 168 177 184 181 183 188 188 189 190 190 191 191 189 189 185 179 174 170 171 174 173 173 177 178 176 174 173 173 171 169 174 183 188 186 187 188 186 186 184 168 154 149 150
202 216 213 203 204 208 198 202 208 208 213 201 190 193 192 198 190 187 196 185 185 207 205 201 212 219 216 215 206 195 197 201 204 205 201 198 196 198 206 203 189 183 179 175 183 186 182 184 185 186 190 192 191 191 191 191 189 186 180 174 170 168 170 171 174 178 178 178 177 174 173 172 170 177 184 185 177 177 191 194 186 171 150 143 144 147
202 212 210 201 196 203 197 196 202 205 210 205 195 198 196 191 188 187 192 187 186 204 214 202 208 221 215 214 211 197 195 199 203 209 210 206 201 199 203 199 191 188 186 187 189 184 183 186 186 189 193 192 192 193 193 193 188 184 180 174 167 162 163 169 173 173 173 176 177 175 176 175 176 179 177 173 166 170 184 181 175 163 146 142 148 145
207 204 201 199 193 198 196 190 198 204 209 215 211 205 199 188 192 194 180 181 186 202 219 206 201 221 213 209 208 195 194 198 198 204 209 209 206 205 203 199 196 195 195 194 192 188 186 188 191 194 193 193 194 195 195 194 189 184 179 170 162 159 162 170 171 166 165 170 174 177 173 166 168 174 171 160 153 163 168 162 168 159 145 149 153 143
210 202 193 196 195 199 202 194 197 203 203 210 215 216 208 189 193 197 174 175 188 198 205 203 204 214 207 205 200 190 195 199 198 201 205 205 204 207 204 200 201 201 202 199 194 194 189 187 191 192 193 195 196 198 198 195 191 186 175 164 158 158 160 163 165 167 168 170 176 179 172 164 165 169 171 165 161 164 157 156 164 153 149 156 151 140
207 201 194 195 195 197 202 199 195 198 203 205 200 211 217 191 191 197 178 179 198 197 192 202 218 214 197 202 200 194 197 198 199 202 203 203 200 203 205 203 203 200 202 201 196 197 192 187 190 193 195 198 201 202 197 193 193 184 168 159 155 156 160 165 171 176 177 176 178 181 180 177 175 173 168 161 154 150 154 163 162 151 150 153 146 136
196 193 193 193 194 195 197 196 189 192 206 204 179 192 207 194 191 194 187 190 204 197 187 199 217 231 208 198 194 194 197 198 201 202 201 201 199 202 206 205 203 200 200 198 196 199 194 188 193 198 200 203 208 200 191 196 191 166 150 149 151 160 172 178 179 179 179 177 177 182 184 181 178 170 153 145 135 136 164 168 155 145 142 143 142 133
184 189 190 190 193 196 194 191 183 188 206 196 166 184 197 202 202 196 196 203 204 201 195 195 205 228 229 195 184 189 195 200 200 198 198 200 201 204 205 204 202 199 199 199 197 198 195 194 200 204 204 207 206 196 192 183 155 138 142 153 159 168 177 179 176 177 179 178 179 183 184 179 171 156 142 147 146 146 162 162 147 142 143 146 152 137
178 193 195 193 196 196 191 189 179 186 202 180 160 180 190 200 210 204 205 206 201 209 210 194 194 214 230 193 179 187 196 200 197 195 198 201 201 203 202 201 200 196 196 200 200 199 201 203 204 202 203 203 195 191 179 145 137 146 160 166 167 170 175 176 175 176 179 180 180 181 181 175 161 152 155 156 148 147 155 156 147 147 148 149 156 147
181 194 200 201 202 197 189 187 178 188 199 180 163 178 179 189 203 204 211 208 204 215 217 201 194 205 224 196 184 193 195 194 192 193 198 201 201 200 200 199 198 194 192 197 200 202 203 202 201 198 202 199 187 181 151 137 145 160 165 165 167 170 174 178 176 176 180 180 179 178 178 172 161 164 173 164 149 148 154 155 149 149 151 149 153 151
188 189 192 200 205 200 188 184 178 189 200 191 173 177 169 176 189 194 206 212 215 216 214 205 195 201 219 209 187 187 189 193 194 194 195 198 199 197 196 196 195 191 187 192 197 200 198 197 196 196 200 196 182 161 141 141 148 156 156 158 162 168 173 175 177 178 179 179 179 180 175 168 167 175 181 174 161 157 160 158 151 148 149 145 142 136
194 189 183 187 202 203 188 181 175 185 199 199 185 180 173 170 177 189 196 204 215 214 207 200 192 200 220 223 187 174 185 195 196 196 195 196 197 196 192 189 187 185 183 187 192 196 196 195 195 195 197 191 177 153 144 149 153 151 150 147 152 169 176 172 176 177 176 179 181 180 169 162 178 185 182 176 167 163 165 161 152 148 144 137 131 123
184 187 183 183 194 201 194 184 175 181 192 197 191 184 181 172 175 191 191 195 205 200 191 191 189 203 218 220 207 185 189 195 195 199 198 195 196 193 187 182 180 180 181 182 189 195 196 198 198 196 195 184 170 156 153 157 157 148 146 143 154 178 183 171 173 174 175 179 176 173 167 171 191 187 174 171 168 167 167 160 153 150 144 137 130 124
172 176 184 188 183 189 199 195 182 180 187 195 197 195 196 186 181 193 189 192 195 176 170 185 191 207 206 206 206 195 190 191 194 201 200 200 200 190 178 175 175 177 178 180 188 194 196 198 197 192 186 176 165 160 160 160 155 147 146 148 163 186 191 174 172 174 173 176 172 171 174 182 186 177 168 170 171 169 166 160 155 152 149 144 139 135
183 177 177 189 188 184 196 199 187 184 185 191 202 209 210 199 184 187 191 197 187 168 172 185 195 202 172 113 172 181 183 184 188 195 193 193 188 176 168 170 174 176 177 179 186 191 194 194 192 184 178 173 163 160 159 158 155 148 148 156 171 187 189 174 170 170 169 171 170 172 180 181 171 166 168 170 169 167 166 162 156 151 149 149 146 142
186 168 165 185 195 186 193 199 192 192 186 181 199 210 205 204 198 178 107 111 173 178 176 182 191 187 162 133 161 175 182 177 174 182 183 178 171 167 169 173 175 177 177 180 182 186 188 188 187 181 178 173 164 159 158 158 156 150 151 164 173 173 168 166 166 166 165 167 166 168 177 178 168 164 170 170 169 168 164 159 152 146 144 149 150 145
179 145 161 183 189 182 194 200 194 206 208 182 190 201 191 200 251 204 165 142 177 191 171 179 194 191 185 178 168 179 187 177 172 178 180 177 173 173 177 178 178 178 178 179 178 180 182 183 182 178 177 173 164 160 159 157 157 154 155 165 168 158 156 163 166 167 168 169 166 160 166 174 171 167 170 170 169 166 160 153 148 144 145 151 153 147
184 142 161 185 185 174 189 198 194 213 224 207 193 193 189 196 210 200 185 170 184 194 173 183 198 201 200 183 166 181 190 180 179 184 181 178 180 183 184 179 177 175 173 175 176 176 179 182 181 178 175 168 162 161 159 156 157 159 160 162 160 158 164 167 165 165 165 168 167 160 161 167 169 172 172 169 166 162 157 152 148 146 148 151 150 145
196 170 160 181 183 171 181 196 194 199 211 221 219 201 201 213 203 192 193 183 189 197 185 183 195 204 206 185 173 185 192 186 183 184 182 182 185 186 182 174 172 172 171 174 176 175 179 184 182 178 173 164 161 162 160 157 160 161 160 159 160 162 167 167 164 162 160 163 165 161 161 162 165 171 171 166 164 159 154 154 152 149 150 150 145 143
199 203 160 171 179 177 183 196 197 190 188 205 215 194 192 208 209 193 195 207 203 197 187 176 187 202 201 187 179 183 188 190 187 183 184 189 188 182 174 170 170 172 173 175 176 174 178 180 176 174 170 162 160 161 161 161 162 162 162 161 163 165 166 165 165 165 161 160 164 163 161 159 163 168 167 165 164 159 156 157 154 150 149 147 145 144
192 192 165 166 175 185 187 188 197 197 190 198 203 190 190 193 194 184 181 208 221 203 193 184 187 193 182 187 196 187 188 191 189 188 189 190 187 179 172 171 171 171 172 173 173 172 176 176 172 172 169 163 159 158 160 162 163 166 166 163 164 170 170 167 167 168 163 158 163 164 160 159 164 168 167 165 163 159 159 159 155 153 148 143 144 145
202 200 170 166 172 185 179 178 198 199 192 204 212 204 200 193 200 200 172 183 201 191 182 184 183 156 132 164 204 199 196 194 192 196 192 182 178 172 168 170 168 168 167 168 170 171 176 175 171 172 170 164 160 158 161 163 164 169 168 163 165 172 172 168 167 167 162 156 159 162 161 163 166 168 166 162 160 160 161 161 157 151 144 141 144 145
199 205 169 161 166 179 170 170 197 200 190 203 212 211 208 198 208 220 163 160 190 183 169 175 185 160 100 98 196 182 172 173 180 191 182 166 163 162 163 164 163 164 166 169 172 172 174 173 171 171 170 164 160 158 161 161 163 168 168 166 168 170 169 168 166 165 159 154 156 159 163 164 166 167 164 161 161 162 163 162 155 147 143 143 145 145
205 201 165 156 160 168 165 168 192 198 193 201 205 205 208 201 206 215 192 169 196 183 186 191 174 147 103 102 145 156 172 176 171 173 165 156 157 160 161 163 164 166 169 172 174 171 170 171 170 171 170 163 158 157 158 156 159 167 170 169 169 167 166 166 163 161 157 152 154 159 163 165 166 166 164 163 165 164 164 163 156 149 147 145 146 147
238 210 170 163 164 167 176 180 185 188 191 200 198 197 203 201 202 205 203 202 186 146 183 211 133 104 113 132 138 149 176 181 171 165 162 158 160 161 162 164 166 170 173 174 174 171 169 170 171 171 167 161 157 156 153 151 159 169 171 171 168 164 165 165 161 160 157 155 158 161 162 164 166 166 165 167 168 167 166 164 158 153 151 148 148 149
194 210 192 188 183 179 185 185 182 182 188 197 194 193 198 199 199 204 207 204 182 152 187 220 51 77 112 126 129 143 165 172 165 162 163 162 162 163 163 165 167 172 174 173 171 170 168 169 171 166 160 156 155 153 147 148 160 168 169 170 168 163 163 163 160 159 160 161 162 160 160 161 163 166 167 167 168 168 168 166 158 153 151 150 151 151
202 196 193 202 208 204 188 177 179 184 190 194 193 193 194 195 200 210 214 207 195 187 178 145 38 19 48 70 110 148 161 167 167 167 167 164 164 165 163 165 169 172 173 172 173 172 169 168 168 162 156 154 150 144 140 147 158 163 165 170 170 165 163 163 162 161 162 164 162 160 162 163 161 164 166 167 168 169 168 164 159 153 150 152 154 153
234 201 189 204 216 211 190 173 176 183 189 191 191 192 193 194 200 209 217 219 222 223 145 70 38 352 11 24 53 141 155 165 166 167 166 164 166 166 167 170 172 173 174 175 174 173 169 166 163 157 153 151 147 141 142 149 155 159 165 173 175 170 165 164 162 159 160 160 156 158 163 164 163 166 170 170 170 169 167 164 160 154 151 153 155 155
251 217 195 206 206 203 196 180 176 179 184 187 190 190 190 195 201 209 218 223 231 252 293 12 345 337 21 26 40 98 133 157 160 167 171 170 171 171 172 175 176 176 177 175 172 170 168 163 157 152 150 150 148 146 148 152 155 158 166 173 174 171 167 163 156 152 152 149 149 157 164 167 170 172 171 169 169 167 165 163 159 154 154 156 156 156
230 197 195 220 201 193 196 187 178 180 184 184 186 188 187 191 198 209 219 222 228 247 266 297 300 319 58 54 64 97 129 156 163 174 177 175 176 175 176 178 177 177 176 174 171 166 162 159 154 151 152 153 152 149 149 152 155 157 163 168 169 167 164 159 151 146 146 147 152 161 168 172 174 172 169 168 168 167 165 162 158 156 157 158 157 157
230 228 235 242 204 181 187 190 180 180 186 188 189 190 188 188 193 206 220 225 228 236 240 253 272 360 74 71 94 121 156 168 170 177 179 179 180 180 180 179 178 176 172 171 170 164 159 159 155 152 153 153 152 148 148 152 155 157 162 164 164 163 161 161 157 153 155 158 159 164 170 173 172 170 169 169 167 164 162 160 159 159 159 159 159 159
239 248 237 224 195 165 178 189 179 174 186 197 195 192 189 187 190 201 218 227 231 235 236 244 289 59 76 99 129 145 173 177 176 179 180 182 183 183 182 179 176 176 172 170 169 162 156 157 156 153 154 154 153 151 151 154 156 157 159 158 158 160 162 165 166 163 163 163 162 165 170 173 172 171 170 167 163 161 161 161 162 162 162 161 161 161
250 249 239 220 188 158 169 180 177 180 189 188 187 191 190 190 189 196 216 227 230 232 239 268 340 34 78 115 132 158 178 179 180 180 180 184 184 183 181 175 172 175 173 170 171 166 158 157 156 153 153 154 154 152 152 155 157 155 154 155 157 160 164 167 168 168 166 162 161 166 170 172 172 171 167 163 161 162 163 164 164 164 163 162 162 163
255 241 237 227 182 149 159 171 178 188 179 93 100 170 184 193 195 198 214 226 232 238 244 261 297 336 54 89 111 167 178 176 181 180 176 179 182 179 178 172 166 168 169 171 174 171 162 159 157 153 151 149 150 151 152 155 157 155 154 157 158 160 166 170 170 169 166 162 163 167 170 172 172 167 162 161 164 166 166 166 165 165 164 164 164 164
245 236 227 213 161 143 159 174 173 155 110 92 110 132 139 180 196 202 213 224 237 254 259 262 280 348 49 88 168 170 170 168 182 190 178 176 177 172 172 171 164 162 164 171 174 168 161 161 159 156 154 151 152 157 158 157 155 152 154 161 160 158 165 170 169 168 167 168 171 171 172 173 172 166 162 165 167 168 168 166 165 165 164 164 166 166
226 230 212 186 158 157 164 159 143 134 123 117 131 141 147 182 195 201 214 217 218 249 272 272 261 112 105 171 154 143 152 155 172 193 184 177 175 168 162 163 165 165 162 164 166 163 160 159 158 158 156 155 159 161 157 155 154 149 152 159 160 159 163 166 166 169 172 174 177 177 175 175 174 170 167 167 168 168 168 167 165 165 165 166 167 167
216 233 231 192 166 168 163 148 144 153 144 121 114 117 113 201 180 197 220 206 174 182 246 260 235 147 141 154 141 145 158 163 170 186 183 178 175 170 158 152 158 166 164 162 164 162 159 158 160 161 158 156 160 160 154 156 156 152 156 163 162 160 162 165 167 170 173 175 177 178 178 180 180 177 171 168 169 169 168 167 166 167 168 169 167 164
203 239 257 218 163 164 164 152 147 139 110 96 101 100 90 79 104 166 214 195 152 151 206 225 187 153 147 150 149 160 181 170 117 134 164 173 172 167 157 150 154 160 162 165 168 165 160 158 162 164 160 156 158 160 158 158 157 156 162 166 165 162 162 168 173 174 174 175 174 174 176 179 181 179 173 171 172 170 167 167 167 168 169 168 163 161
184 221 230 187 159 167 172 150 130 97 78 81 82 79 93 136 152 184 199 171 109 119 174 190 165 148 144 151 156 165 235 50 64 81 145 161 162 160 157 156 158 158 158 162 166 165 161 158 160 164 164 163 164 166 165 161 158 161 164 165 167 168 165 168 173 174 174 174 170 169 173 174 174 174 172 171 170 167 167 168 167 167 168 168 168 169
104 105 184 165 157 166 168 140 113 88 75 60 44 55 106 155 174 188 188 94 60 90 140 162 151 138 144 158 155 100 35 39 35 26 159 156 154 156 157 156 158 159 160 159 160 163 163 161 163 166 167 169 169 168 167 162 157 163 167 166 170 175 173 172 172 170 173 174 172 174 177 173 168 169 170 171 172 171 174 178 177 176 176 175 175 175
8 21 106 132 145 152 147 131 117 105 66 7 14 81 134 175 172 152 96 35 40 82 113 133 137 137 147 149 111 66 43 42 57 124 158 152 147 151 155 152 156 162 159 152 154 163 165 162 166 169 167 169 170 167 168 169 166 165 168 169 173 176 175 175 173 171 173 175 174 175 173 168 170 174 174 177 179 176 176 178 177 176 175 175 174 173
346 341 112 85 72 152 146 138 132 115 57 351 348 129 143 130 110 99 79 53 55 78 105 121 127 140 149 130 91 71 51 42 59 105 139 142 141 148 153 154 161 162 152 146 153 168 169 163 166 167 163 166 172 172 174 175 169 165 168 173 176 172 169 171 174 175 174 171 171 173 171 170 176 178 176 178 178 171 167 167 167 168 171 173 174 174
6 3 76 48 16 185 141 114 101 81 35 2 9 76 73 52 57 73 77 71 65 72 94 105 116 132 141 133 120 87 55 49 57 86 122 134 139 146 152 159 164 157 149 153 163 173 171 165 167 167 164 166 174 178 179 178 172 170 173 172 170 167 164 167 172 175 172 169 168 170 170 171 173 172 171 173 170 164 162 163 164 167 173 175 175 176
13 357 350 29 32 41 68 78 76 60 47 38 46 66 70 63 50 51 70 76 68 62 73 93 115 125 122 124 134 118 78 76 69 80 114 134 145 151 154 162 164 159 160 166 170 174 174 169 168 171 170 171 175 179 183 183 179 177 176 171 168 168 166 166 170 173 173 172 169 165 164 166 164 163 165 167 165 163 164 166 167 171 175 176 176 178
352 328 306 352 36 57 78 77 65 58 59 61 66 75 79 76 64 60 72 77 68 62 67 84 102 112 118 124 127 122 119 118 108 103 116 131 146 156 158 159 159 162 168 171 171 176 178 173 171 174 175 176 179 180 180 180 176 171 170 170 169 167 164 164 168 172 171 169 166 164 162 162 160 161 164 166 168 169 170 171 172 175 176 177 179 182
14 348 345 9 15 57 96 69 46 50 54 55 74 85 79 73 70 70 76 78 74 70 70 74 86 100 111 112 107 114 129 138 141 140 134 132 142 156 162 159 159 166 172 172 172 176 175 171 172 173 171 175 181 178 173 174 174 168 166 167 165 163 164 165 165 167 168 166 164 164 163 161 162 164 165 167 171 175 176 177 178 179 179 181 182 184
1 342 353 20 17 33 87 54 45 75 70 54 61 68 57 57 65 74 86 93 90 86 79 71 75 87 92 86 83 106 130 148 154 152 151 144 141 150 162 163 166 173 173 170 172 174 173 172 174 172 168 171 175 169 163 165 168 165 164 166 166 163 164 166 165 165 166 165 163 164 165 165 166 166 167 170 175 179 180 181 182 182 184 185 185 185
290 317 2 35 32 87 89 33 32 85 82 60 50 45 38 32 43 65 84 92 95 98 96 88 75 71 75 67 53 84 114 128 143 150 153 147 142 150 163 168 172 177 173 169 172 176 177 176 176 175 172 170 167 163 161 162 166 167 168 169 169 166 165 166 166 163 160 161 163 164 167 169 169 168 170 174 178 181 183 185 186 187 188 190 190 188
287 353 48 104 173 140 80 29 14 39 70 55 35 27 25 17 21 45 60 63 66 75 85 94 97 91 80 63 43 67 94 99 113 135 141 139 142 149 157 162 169 174 172 170 174 180 182 178 173 173 171 166 161 162 165 166 169 174 176 174 171 170 170 168 164 160 161 165 169 169 168 169 171 171 171 174 178 180 180 183 187 188 188 191 193 193
359 24 32 114 147 101 53 37 18 3 61 59 30 18 20 13 13 35 46 46 49 49 49 66 81 85 81 69 53 56 74 83 94 112 116 120 132 143 152 160 166 169 170 171 176 181 182 175 167 166 167 165 163 164 169 173 177 180 181 178 174 173 172 168 167 171 174 173 174 176 174 171 172 174 174 178 182 181 176 176 182 186 188 190 194 197